SAOCOM 1B (46265 NORAD) Tracking and Keplerian Element Data

This shows tracking and keplerian element data for the satellite.

Feedback or suggestion? Click here.




ElementValue
Catalog46265
NameSAOCOM 1B
Epoch Orbit18225
Epoch Day13.15879569
Epoch Year2024
RAAN200.711
Inclination97.8855
Eccentricity0.0001422
Argument of Perigee90.6555
Mean Anonmoly269.4821
Mean Motion14.82146551
Decay Rate8.53E-06
L11 46265U 20059A 24013.15879569 .00000853 00000+0 11368-3 0 9996
L22 46265 97.8855 200.7110 0001422 90.6555 269.4821 14.82146551182254



Live tracking and technical data element details for SAOCOM 1B (NORAD 46265). SAOCOM 1B can be tracked NOW for your location showing map with azimuth and elevation plus other details from your city location.







IsCatalogInMostPopularTable: catalog: 46265, numindb: 151
Update: records affected: 1



GetName: 46265 SAOCOM 1B

Hit Count: updated at: Fri, 19 Apr 2024 12:06:28 GMT